FALCON 9 DEB (46595 NORAD) Tracking and Keplerian Element Data

This shows tracking and keplerian element data for the satellite.

Feedback or suggestion? Click here.




ElementValue
Catalog46595
NameFALCON 9 DEB
Epoch Orbit507
Epoch Day307.07211941
Epoch Year2020
RAAN304.9143
Inclination52.9744
Eccentricity0.0002052
Argument of Perigee250.8883
Mean Anonmoly109.1945
Mean Motion16.50706586
Decay Rate0.14053279
L11 46595U 20070BR 20307.07211941 .14053279 12653-4 14469-3 0 9994
L22 46595 52.9744 304.9143 0002052 250.8883 109.1945 16.50706586 5074

Live tracking and technical data element details for FALCON 9 DEB (NORAD 46595). FALCON 9 DEB can be tracked NOW for your location showing map with azimuth and elevation plus other details from your city location.

Track the satellite on the map from your city or location and see movement details for azimuth, elevation, latitude, longitude, range, height, and movement on the map or in text.







IsCatalogInMostPopularTable: catalog: 46595, numindb: 16
Update: records affected: 1



GetName: 46595 FALCON 9 DEB

Hit Count: updated at: Wed, 02 Dec 2020 18:20:33 GMT